STARLINK-4712, 53798

Orbit data source: Space-Track

STARLINK-4712, 53798 is a payload satellite owned by SpaceX/Seattle (US) in LEO that was launched on Sun, 11 Sep 2022 UTC via an FALCON 9 launch vehicle from the Air Force Eastern Test Range (AFETR). Payloads include a variety of satellites, spacecraft, and rockets equipped with specific instruments for various scientific and technological missions. These include communications satellites like Starlink; space stations such as the ISS; scientific satellites like the Hubble; Earth observation satellites from companies like Planet Labs, Umbra, and HawkEye 360; GPS; miniature CubeSats for education and research; and military/defense satellites.

Loading next visibility...
STARLINK-4712 details
Identifier
53798, 2022-111AB
Orbit
LEO
Last TLE update2 days ago
Origin
Flag of USSpaceX/Seattle (US)
ManufacturerSpaceX/Seattle
MissionOperational Commercial Communications
Bus & MotorSTARLINK, Unknown motor
Mass305 kg wet, ~290 kg dry
Launch date (UTC)
2022-09-11 (2 years ago)
Launch vehicle
FALCON 9
Launch site
Air Force Eastern Test Range (AFETR)
Object type
Payload
Rocket body
Debris
Shape & HBRBox + 1 Pan, 8.86 m
Radar Cross Section13.562 m², Large (>1 m²)

Expand to show TLE details & history

TLE from 2 days ago
0 STARLINK-4712
1 53798U 22111AB  24347.15004547 -.00002941  00000-0 -16669-3 0  9994
2 53798  53.2168 145.2509 0001235  92.6910 267.4224 15.08851189125363
Epoch: 2024-12-12T03:36Z
Definitive object data (Epoch: 2024-12-12T03:36:03.928Z)
Latitude0.00001°
Longitude9.90003°
Altitude540.645 km
Speed7.593 km/s
True Right ascension09h 41m 00s
True Declination0° 00' 00"
Sunlit
Object was in daylight at TLE epoch
Visualization TLE readout
Latitude16.57036°
Longitude169.25328°
Altitude539.575 km
Speed7.595 km/s
Apparent Right ascension20h 42m 06s
Apparent Declination-50° 23' 15"
Sunlit
Object is in daylight
Visualization observer readout
Local Sidereal Time20:09:59
Azimuth174.891° S
Elevation-0.578°
Doppler factor1
Orbital elements
Apogee altitude540.809 km
Perigee altitude539.1 km
Semi-major axis6,918.091 km
Eccentricity0.0001235
Inclination53.2168°
RAAN145.2509°
Arg. of periapsis92.691°
True anomaly267.40826°
Mean anomaly267.4224°
Eccentric anomaly267.41533°
Mean motion3.77193 °/min
BSTAR-0.00016669
Orbital period95.44 mins
Loading maneuver chart data...
Loading historical data...
Loading historical data...
Loading historical data...
Loading historical data...
Loading historical data...
Loading historical data...
Loading historical data...

STARLINK-4712 Visibility forecast

Observer location: undefined°, undefined

Span
Click to sort rows by Start time (UTC) header in descending order
Start Az.
Max El. time (UTC)
Max El. Az.
Max El.
End time (UTC)
End Az.
7 mins2024-12-14 13:01:13.030Z233.649° WSW2024-12-14 13:04:13.030Z316.071° NNW44.622°2024-12-14 13:08:13.030Z48.25° ENE
4 mins2024-12-14 14:42:13.030Z304.978° NW2024-12-14 14:44:13.030Z341.852° N18.46°2024-12-14 14:46:13.030Z17.008° NNE
4 mins2024-12-14 18:04:13.030Z359.101° N2024-12-14 18:05:13.030Z19.618° NNE19.718°2024-12-14 18:08:13.030Z70.585° E
6 mins2024-12-14 19:42:13.030Z309.219° NW2024-12-14 19:45:13.030Z165.182° S44.873°2024-12-14 19:48:13.030Z132.654° SE
|